Powrót do katalogu

STARLINK-1371

AktywnyŁącznośćVLEO
NORAD 45542·PAYLOAD·🇺🇸 United States

Wystrzelony Apr 22, 2020 z Cape Canaveral Space Force Station

Loading…

Następne Przeloty (najbliższe 24 godziny)

TLE

ŚwieżeSource: CelesTrak SupGP

Epoka: Sep 14, 2026, 20:12 UTC

1 45542C 20025M   26257.84215278  .00141200  00000+0  72848-3 0  2574
2 45542  53.0365 241.9719 0005539  47.1781 198.7480 15.80336145    11

Śledź STARLINK-1371 w czasie rzeczywistym z AllMySat

Download on the App Store